This is the latest recevied weather packets stored in our database for station/object GUNLAK-WX. If no packets are shown the sender has not sent any weather packets the latest 10 day(s).
| Time | Temp. | Humidity | Pressure | Rain* | Wind** | Luminosity | Snow |
|---|---|---|---|---|---|---|---|
| 1777461373 | 8.89° C | 92% | 986.1 hPa | 0 mm | - | - | - |
| 1777460498 | 8.89° C | 92% | 986.1 hPa | 0 mm | - | - | - |
| 1777459573 | 8.89° C | 91% | 985.5 hPa | 0 mm | - | - | - |
| 1777458692 | 8.89° C | 90% | 985.7 hPa | 0 mm | - | - | - |
| 1777457773 | 8.89° C | 90% | 985.8 hPa | 0 mm | - | - | - |
| 1777456905 | 8.89° C | 90% | 985.8 hPa | 0 mm | - | - | - |
| 1777455973 | 8.89° C | 91% | 986.1 hPa | 0 mm | - | - | - |
| 1777455091 | 8.89° C | 91% | 986.1 hPa | 0 mm | - | - | - |
| 1777454173 | 9.44° C | 91% | 986.1 hPa | 0 mm | - | - | - |
| 1777453302 | 8.89° C | 91% | 986.1 hPa | 0 mm | - | - | - |
| 1777452374 | 9.44° C | 91% | 985.2 hPa | 0 mm | - | - | - |
| 1777451492 | 9.44° C | 86% | 984.6 hPa | 0 mm | - | - | - |
| 1777450573 | 9.44° C | 86% | 984.6 hPa | 0 mm | - | - | - |
| 1777449703 | 9.44° C | 86% | 984.6 hPa | 0 mm | - | - | - |
| 1777448773 | 9.44° C | 88% | 985.4 hPa | 0 mm | - | - | - |
| 1777447890 | 9.44° C | 88% | 985.4 hPa | 0 mm | - | - | - |
| 1777446972 | 8.89° C | 88% | 985.4 hPa | 0 mm | - | - | - |
| 1777446104 | 8.89° C | 88% | 985.4 hPa | 0 mm | - | - | - |
| 1777445172 | 8.89° C | 88% | 986.8 hPa | 0 mm | - | - | - |
| 1777444291 | 8.89° C | 88% | 986 hPa | 0 mm | - | - | - |
| 1777443372 | 9.44° C | 88% | 986.1 hPa | 0 mm | - | - | - |
| 1777442521 | 9.44° C | 88% | 986.1 hPa | 0 mm | - | - | - |
| 1777441573 | 9.44° C | 86% | 987.2 hPa | 0 mm | - | - | - |
| 1777440693 | 9.44° C | 87% | 986.1 hPa | 0 mm | - | - | - |
| 1777439773 | 9.44° C | 87% | 986.1 hPa | 0 mm | - | - | - |
* Rain latest hour (hover to see other rain measurements)
** Current wind speed in m/s (hover to see current wind gust speed)